Flag for Canada Weather past 2 weeks in Rouyn-Noranda, Quebec, Canada

Now
-22 °F

Partly sunny.


Feels Like: -22 °F
Forecast: -23 / 11 °F
Wind: 2 mph from South

Location: Rouyn Airport

Current Time: Jan 31, 2015 at 9:16:56 AM

Latest Report: Jan 31, 2015 at 8:00 AM


Visibility: 15 mi

Pressure: 30.25 "Hg

Humidity: 75%

Dew point: -27 °F

Location of Rouyn-NorandaLocation

Historic Weather in Rouyn-Noranda — Graph

°F

Rouyn-Noranda temperature yesterday

Maximum temperature yesterday: 1 °F (at 12:00 AM)
Minimum temperature yesterday: -24 °F (at 11:00 PM)
Average temperature yesterday: -10 °F

Past Weeks' High & Low Weather Summary

 TemperatureHumidityPressure
High30 °F (Jan 24, 4:00 AM)100% (Jan 18, 12:00 PM)30.40 "Hg (Jan 18, 12:00 PM)
Low-29 °F (Jan 17, 2:00 AM)52% (Jan 27, 3:00 PM)29.37 "Hg (Jan 24, 10:50 AM)
Average1 °F79%30.03 "Hg
* Reported Jan 16 8:00 AM — Jan 31 8:00 AM, Rouyn-Noranda, Weather by CustomWeather, © 2014

Note: Actual official high and low records may vary slightly from our data, if they occured in-between our weather recording intervals... More about our weather records

Advertising

Rouyn-Noranda weather history for previous 24 hours

 ConditionsComfort  
Time TempWeatherWind HumidityBarometerVisibility
8:00 AM
Jan 31
-22 °FPartly sunny.2 mph75%30.25 "Hg15 mi
7:00 AM-18 °FPassing clouds.3 mph75%30.25 "Hg15 mi
6:00 AM-18 °FClear.No wind75%30.25 "Hg15 mi
5:00 AM-20 °FClear.5 mph75%30.29 "Hg15 mi
4:00 AM-20 °FClear.6 mph75%30.31 "Hg15 mi
3:00 AM-22 °FClear.3 mph75%30.32 "Hg15 mi
2:00 AM-22 °FClear.3 mph83%30.33 "Hg15 mi
1:00 AM-24 °FClear.3 mph75%30.34 "Hg15 mi
12:00 AM-24 °FClear.No wind75%30.36 "Hg15 mi
11:00 PM
Jan 30
-24 °FClear.No wind75%30.37 "Hg15 mi
10:00 PM-20 °FClear.No wind75%30.38 "Hg15 mi
9:00 PM-18 °FClear.No wind75%30.40 "Hg15 mi
8:00 PM-18 °FClear.No wind75%30.40 "Hg15 mi
7:00 PM-15 °FClear.2 mph76%30.40 "Hg15 mi
6:00 PM-11 °FClear.3 mph76%30.39 "Hg15 mi
5:00 PM-8 °FPassing clouds.5 mph64%30.39 "Hg15 mi
4:00 PM-8 °FPassing clouds.8 mph64%30.39 "Hg15 mi
3:00 PM-6 °FPassing clouds.9 mph59%30.37 "Hg15 mi
2:00 PM-8 °FPassing clouds.9 mph64%30.37 "Hg15 mi
1:00 PM-8 °FPassing clouds.9 mph64%30.37 "Hg15 mi
12:00 PM-8 °FSnow flurries. Passing clouds.9 mph64%30.37 "Hg15 mi
11:00 AM-11 °FSnow flurries. Passing clouds.9 mph70%30.38 "Hg15 mi
10:00 AM-11 °FScattered clouds.9 mph70%30.37 "Hg15 mi
9:00 AM-13 °FPassing clouds.12 mph76%30.35 "Hg15 mi
Weather by CustomWeather, © 2014

See weather overviewHow to use our weather pages